11P/Tempel-Swift-LINEAR (2008)

Japanese version
Home page
Total 6,336 html files since Dec. 4, 1995
Updated on August 8, 2007

---------------------------------------------------------------------

* Profile

* Orbital Elements

Perturbed ephemeris below is based on elements from MPC 44184. 

 Epoch = 2454600.50000 TT   T = 2454591.07095 TT
 Peri. =  163.89902         a =     3.4140601 AU
 Node  =  240.52623 J2000.0 e =     0.5449504
 Incl. =   13.55316         q =     1.5535665 AU

* Magnitudes Graph

        m1 = 15.0 + 5 log d + 10.0 log r

---------------------------------------------------------------------

The orbital elements are calculated using the Minor Planet & Comet Ephemeris Service.
The magnitudes graphs are made with Comet for Windows.

---------------------------------------------------------------------

Copyright(C) 1995-2008 Seiichi Yoshida (comet@aerith.net). All rights reserved.